METEOR 2-5 DEB, 38271

Orbit data source: Space-Track

METEOR 2-5 DEB, 38271 is space debris in LEO originally from a launch on Wed, 31 Oct 1979 UTC launched from the Plesetsk Missile And Space Complex (PKMTR). Debris objects in space refer to the collection of defunct objects orbiting the Earth. Examples of debris include non-operational satellites, rocket bodies, and fragments generated from explosions, collisions, or faulty payload assembly.

Loading next visibility...
Identifier
38271, 1979-095BR
Orbit
LEO
Country
Flag of CISCIS
Related business
Manufacturer
Unknown
Mission
Spacecraft
Bus & Motor
Unknown
Mass
Unknown
Launch date (UTC)
1979-10-31 (47 years ago)
Launch vehicle
Unknown
Launch site
Plesetsk Missile And Space Complex (PKMTR)
Object type
Payload
Rocket body
Debris
Shape & HBR
Unknown shape, 0.1 m
Radar Cross Section
Small (<0.1 m²)

Expand to show TLE details & history
Last TLE update: 3 days ago

TLE from 3 days ago
0 METEOR 2-5 DEB
1 38271U 79095BR  26170.61977171  .00004536  00000-0  15277-2 0  9998
2 38271  81.2020 132.3067 0022440 311.7096  48.2169 14.36810941760311
Epoch: 2026-06-19T14:52Z
TLE epoch observation values (Epoch: 2026-06-19T14:52:28.275Z)
Latitude
-0.00006°
Longitude
1.34274°
Altitude
761.321 km
Speed
7.479 km/s
True Right ascension
08h 49m 13s
True Declination
0° 00' 00"
Sunlit
Object was in daylight at epoch
Visualization orbit readout
Latitude
Unknown
Longitude
Unknown
Altitude
Unknown
Speed
Unknown
Apparent Right ascension
Unknown
Apparent Declination
Unknown
Sunlit
N/A
Visualization observer readout
Local Sidereal Time
01:06:00
Azimuth
Unknown
Elevation
Unknown
Doppler factor
Unknown
Orbital elements
Apogee altitude
782.227 km
Perigee altitude
750.163 km
Semi-major axis
7,144.332 km
Eccentricity
0.00224
Inclination
81.202°
RAAN
132.3067°
Arg. of periapsis
311.7096°
True anomaly
48.409°
Mean anomaly
48.2169°
Eccentric anomaly
48.31292°
Mean motion
3.59419 °/min
Orbital period
100.16 mins
BSTAR
0.0015277
Loading maneuver chart data...
Computing Atmospheric mass density...

Documentation

Showing up to 5 results
|